Norfolk, NE

12:47 PM CDT on May 26, 2017 (GMT -0500)
Stefan Memorial

Weather History for KOFK - July, 2013

Change the Weather History Date:

Thursday, July 11, 2013

  Actual Average Record
Temperature  
Mean Temperature 75 °F 75 °F  
Max Temperature 87 °F 87 °F 113 °F (1954)
Min Temperature 63 °F 64 °F 46 °F (1926)
Degree Days  
Heating Degree Days 0 0  
Month to date heating degree days 0 0  
Since 1 June heating degree days 42 30  
Since 1 July heating degree days 0 0  
Cooling Degree Days 10 10  
Month to date cooling degree days 109 108  
Year to date cooling degree days 356 355  
Since 1 June cooling degree days 292 294  
Growing Degree Days 25 (Base 50)    
Moisture  
Dew Point 61 °F    
Average Humidity 68    
Maximum Humidity 93    
Minimum Humidity 42    
Precipitation  
Precipitation 0.00 in 0.10 in 2.05 in (2000)
Month to date precipitation 0.39 1.24  
Year to date precipitation 13.99 15.20  
Snow  
Snow 0.00 in 0.00 in - ()
Month to date snowfall 0.0 0.0  
Since 1 July snowfall 0.0 0.0  
Snow Depth 0.00 in    
Sea Level Pressure  
Sea Level Pressure 30.00 in    
Wind  
Wind Speed 12 mph (SE)    
Max Wind Speed 22 mph    
Max Gust Speed 28 mph    
Visibility 10 miles    
Events      
T = Trace of Precipitation, MM = Missing Value Source: NWS Daily Summary

Daily Weather History Graph

Daily Weather History Graph

Search for Another Location

Airport or City:

Trip Planner

Search our weather history database for the weather conditions in past years. The results will help you decide how hot, cold, wet, or windy it might be!

Date:

Astronomy

Jul. 11, 2013 Rise Set
Actual Time 6:04 AM CDT 9:05 PM CDT
Civil Twilight 5:30 AM CDT 9:39 PM CDT
Nautical Twilight 4:48 AM CDT 10:21 PM CDT
Astronomical Twilight 3:57 AM CDT 11:12 PM CDT
Moon 9:28 AM CDT (7/11) 10:42 PM CDT (7/11)
Length of Visible Light 16h 08m
Length of Day
15h 01m
Waxing Crescent, 11% of the Moon is Illuminated
Jul 11
Waxing Crescent
Jul 15
First Quarter
Jul 22
Full
Jul 29
Last Quarter
Aug 6
New

Hourly Weather History & Observations

Time (CDT) Temp. Heat Index Dew Point Humidity Pressure Visibility Wind Dir Wind Speed Gust Speed Precip Events Conditions
12:56 AM 64.9 °F - 63.0 °F 93% 30.04 in 9.0 mi SE 4.6 mph - N/A   Clear
1:56 AM 64.9 °F - 63.0 °F 93% 30.04 in 9.0 mi East 3.5 mph - N/A   Clear
2:56 AM 64.0 °F - 62.1 °F 93% 30.04 in 6.0 mi SE 5.8 mph - N/A   Clear
3:56 AM 63.0 °F - 61.0 °F 93% 30.04 in 8.0 mi SE 5.8 mph - N/A   Clear
4:56 AM 64.0 °F - 61.0 °F 90% 30.04 in 10.0 mi SE 4.6 mph - N/A   Clear
5:56 AM 64.0 °F - 60.1 °F 87% 30.04 in 10.0 mi ESE 3.5 mph - N/A   Clear
6:56 AM 64.9 °F - 61.0 °F 87% 30.06 in 9.0 mi ESE 3.5 mph - N/A   Clear
7:56 AM 68.0 °F - 62.1 °F 81% 30.06 in 10.0 mi SE 3.5 mph - N/A   Mostly Cloudy
8:56 AM 73.9 °F - 61.0 °F 64% 30.06 in 10.0 mi South 15.0 mph 18.4 mph N/A   Clear
9:56 AM 75.9 °F - 59.0 °F 56% 30.04 in 10.0 mi SSE 15.0 mph 23.0 mph N/A   Clear
10:56 AM 78.1 °F - 59.0 °F 52% 30.06 in 10.0 mi SE 15.0 mph 20.7 mph N/A   Clear
11:56 AM 80.1 °F 80.7 °F 59.0 °F 48% 30.05 in 10.0 mi South 16.1 mph 21.9 mph N/A   Clear
12:56 PM 82.0 °F 82.4 °F 60.1 °F 47% 30.03 in 10.0 mi SSE 16.1 mph 23.0 mph N/A   Clear
1:56 PM 84.0 °F 84.0 °F 60.1 °F 44% 30.01 in 10.0 mi SSE 18.4 mph - N/A   Clear
2:56 PM 84.9 °F 85.0 °F 61.0 °F 44% 29.99 in 10.0 mi SSE 17.3 mph 24.2 mph N/A   Clear
3:56 PM 86.0 °F 86.3 °F 62.1 °F 44% 29.97 in 10.0 mi SSE 16.1 mph 23.0 mph N/A   Clear
4:16 PM 86.0 °F 86.6 °F 62.6 °F 45% 30.00 in 10.0 mi SSE 17.3 mph 23.0 mph N/A   Partly Cloudy
4:56 PM 87.1 °F 87.5 °F 62.1 °F 43% 29.95 in 10.0 mi SSE 16.1 mph 24.2 mph N/A   Clear
5:56 PM 86.0 °F 86.1 °F 61.0 °F 43% 29.94 in 10.0 mi South 17.3 mph 23.0 mph N/A   Clear
6:56 PM 84.9 °F 85.0 °F 61.0 °F 44% 29.92 in 10.0 mi SSE 17.3 mph 21.9 mph N/A   Clear
7:56 PM 82.9 °F 83.7 °F 62.1 °F 49% 29.91 in 10.0 mi SSE 11.5 mph - N/A   Clear
8:56 PM 79.0 °F - 62.1 °F 56% 29.91 in 10.0 mi SE 10.4 mph - N/A   Clear
9:56 PM 77.0 °F - 62.1 °F 60% 29.92 in 10.0 mi SE 10.4 mph - N/A   Clear
10:56 PM 75.0 °F - 62.1 °F 64% 29.94 in 10.0 mi SE 11.5 mph 18.4 mph N/A   Clear
11:56 PM 73.9 °F - 61.0 °F 64% 29.94 in 10.0 mi SSE 11.5 mph - N/A   Clear